Regional Weather Roundup
Issued by NWS

Current Version |  Previous Version |  Text Only |  Print | Product List |  Glossary On
Versions: 1 2 3 4 5 6 7 8 9 10 11 12 13 14 15 16 17 18 19 20 21 22 23 24 25 26 27 28 29 30 31 32 33 34 35 36 37 38 39 40 41 42 43 44 45 46 47 48 49 50
127
ASUS44 KFWD 261515
RWRTX
NORTH TEXAS HOURLY WEATHER ROUNDUP
NATIONAL WEATHER SERVICE FORT WORTH TX
1000 AM CDT SUN MAY 26 2024

NOTE: "FAIR" INDICATES FEW OR NO CLOUDS BELOW 12,000 FEET WITH NO
SIGNIFICANT WEATHER AND/OR OBSTRUCTIONS TO VISIBILITY.

TXZ118-119-261600-
DALLAS/FORT WORTH METROPLEX

CITY           SKY/WX    TMP DP  RH WIND       PRES   REMARKS
DFW AIRPORT    FAIR      85  66  53 SW21G32   29.67R
DALLAS LOVE    FAIR      85  65  51 SW15G30   29.67R
FTW MEACHAM    FAIR      83  66  56 S20G30    29.68R
DAL-EXECUTIVE  FAIR      84  66  54 SW15G29   29.68R
FTW-ALLIANCE   FAIR      85  66  53 SW21G31   29.67R
FTW-NAS-JRB    FAIR      86  65  49 SW22G31   29.69R
FTW-SPINKS     SUNNY     84  66  54 S20G28    29.72R
ARLINGTON      FAIR      84  65  52 S18G28    29.69R
GRAND PRAIRIE  SUNNY     84  63  48 S20G29    29.71R
ADDISON        SUNNY     84  63  48 S13G23    29.70R
MESQUITE       SUNNY     84  64  51 SW13G21   29.68R
LANCASTER      FAIR      83  65  54 SW15      29.70R
$$

TXZ091>094-102>105-117-120-121-131>134-261600-
NORTH CENTRAL TEXAS

CITY           SKY/WX    TMP DP  RH WIND       PRES   REMARKS
SHRMAN/DENISON SUNNY     84  63  48 SW22G29   29.65R
GAINESVILLE    FAIR      82  63  51 SW22      29.67R
BOWIE          FAIR      80  64  58 SW15      29.67R
BRIDGEPORT     FAIR      83  64  51 SW15G21   29.70S
DECATUR        FAIR      81  64  55 SW16G22   29.69S
DENTON         FAIR      85  68  56 SW20G29   29.67S
MCKINNEY       FAIR      87  63  44 SW20G35   29.66R
BONHAM         FAIR      84  66  55 SW16G28   29.65R
GREENVILLE     FAIR      84  72  67 S13       29.67R
ROCKWALL       FAIR      84  67  57 SW15G21   29.68R
TERRELL        FAIR      83  68  60 SW14G23   29.68R
WAXAHACHIE     FAIR      82  69  62 SW22G28   29.72R
CLEBURNE       SUNNY     82  70  65 S10G20    29.74R
GRANBURY       FAIR      83  68  59 S16       29.74R
$$

TXZ083>090-098>101-113>116-127>130-139>142-154-155-261600-
WESTERN NORTH TEXAS

CITY           SKY/WX    TMP DP  RH WIND       PRES   REMARKS
WICHITA FALLS  FAIR      85  52  32 W17       29.65R
WF-KICKAPOO    FAIR      84  54  35 W9G16     29.67R
VERNON         FAIR      84  38  19 NW10      29.69R
ABILENE        FAIR      89  57  33 SW10      29.78R
ABILENE-DYESS  FAIR      90  42  18 W10       29.74R
GRAHAM         FAIR      83  64  52 SW13      29.69R
BRECKENRIDGE   FAIR      85  67  53 MISG      29.74R HAZE
CISCO          FAIR      79  68  69 SW20G25   29.77R
EASTLAND       FAIR      80  67  63 S13G25    29.77R
RANGER         FAIR      80  35  19 SW10G20   29.77S
MINERAL WELLS  FAIR      84  65  52 SW14      29.71R
STEPHENVILLE   FAIR      82  66  59 S13G18    29.79R
COMANCHE       FAIR      82  69  63 S14       29.79R HAZE
BROWNWOOD      FAIR      81  68  65 S12       29.80S
COLEMAN        FAIR      79  66  64 MISG      29.81R
BRADY          FAIR      81  70  69 S12G20    29.82R
SAN SABA       FAIR      81  71  71 S10G20    29.81R
$$

TXZ143>147-156>162-174-175-261600-
CENTRAL TEXAS

CITY           SKY/WX    TMP DP  RH WIND       PRES   REMARKS
WACO           FAIR      80  73  79 S18G28    29.73R
WACO-TSTC      SUNNY     77  72  83 S17G26    29.74R
WACO-MCGREGOR    N/A     82  72  71 S17G25    29.75F
HILLSBORO      FAIR      82  71  70 S13G20    29.74R
CORSICANA      FAIR      83  73  72 S20G30    29.72R
MEXIA          FAIR      79  73  80 MISG      29.76R
HEARNE         PTSUNNY   81  75  82 SE5       29.83S
CAMERON        CLOUDY    80  75  86 SE6       29.81F
TEMPLE         PTSUNNY   77  73  87 MISG      29.79F
KILLEEN        MOSUNNY   79  73  83 SE20G28   29.76F
FORT CAVAZOS   FAIR      77  73  88 S15       29.77F
GATESVILLE     FAIR      81  75  83 SE12G23   29.77R
HAMILTON       FAIR      81  73  76 S16       29.78R
$$

TXZ095>097-106>112-122>126-135>138-148>153-164>167-261600-
EAST TEXAS

CITY           SKY/WX    TMP DP  RH WIND       PRES   REMARKS
PARIS          FAIR      84  72  67 S16G23    29.64R
SULPHUR SPRNGS FAIR      83  73  73 S18G25    29.68R
MOUNT PLEASANT FAIR      83  75  77 S15G21    29.66F HX  90
GILMER         FAIR      81  70  69 S13G25    29.67F
MINEOLA        FAIR      81  75  83 S13       29.67S
TYLER          FAIR      82  73  74 S20G29    29.69F
LONGVIEW       FAIR      81  75  82 S16G24    29.69F HAZE
MARSHALL       FAIR      80  79  97 SW13G20   29.71F
ATHENS         FAIR      79  72  78 S9G23     29.68R
PALESTINE      FAIR      79  75  89 S16       29.67F FOG
JACKSONVILLE   FAIR      77  73  86 S15G23    29.74F
HENDERSON      FAIR      82  75  78 SW7       29.74F
CENTER         FAIR      81  73  78 S12G21    29.79F
NACOGDOCHES    FAIR      81  81 100 S12       29.78F FOG     HX  91
LUFKIN         FAIR      82  77  84 S12       29.80F HX  90
$$

SUPPLEMENTAL OBSERVATIONS (NWS FORT WORTH AREA)

CITY           SKY/WX    TMP DP  RH WIND       PRES   REMARKS
CADDO GRASSLND   N/A     84  68  58 S12G24      N/A
LBJ GRASSLAND    N/A     84  66  54 S8G16       N/A
POSSUM KINGDOM   N/A     88  64  45 SW15G23     N/A
GRANBURY         N/A     84  66  54 S17         N/A
COMANCHE         N/A     82  68  61 S14G22      N/A
MCGREGOR         N/A     79  72  78 S15G22      N/A
LAKE LIMESTONE   N/A     79  75  89 S6G16       N/A
PALESTINE        N/A     79  72  78 S10G25      N/A
$$

SUPPLEMENTAL OBSERVATIONS (NWS NORMAN AREA)

CITY           SKY/WX    TMP DP  RH WIND       PRES   REMARKS
GOODLETT         N/A     85  33  15 W15       29.71
ODELL            N/A     80  47  31 NW12      29.71R
CROWELL          N/A     86  38  17 W13       29.71S
KNOX CITY        N/A     85  39  19 W10       29.73
SEYMOUR          N/A     84  47  27 W15       29.71R
MILLERS CREEK    N/A     86  37  17 SW13        N/A
$$

SUPPLEMENTAL OBSERVATIONS (NWS SAN ANGELO AREA)

CITY           SKY/WX    TMP DP  RH WIND       PRES   REMARKS
WEINERT          N/A     85  38  18 W8        29.74S
HASKELL          N/A     86  37  18 W16       29.74
THROCKMORTON     N/A     86  52  31 W15       29.72
STAMFORD         N/A     88  40  18 W17       29.76
CLYDE            N/A     85  61  44 SW9       29.82R
HAMBY            N/A     88  48  25 W9          N/A
IVIE RESERVOIR   N/A     84  70  61 SW6         N/A
COLORADO BEND    N/A     82  70  65 S13G24      N/A
$$

SUPPLEMENTAL OBSERVATIONS (NWS SHREVEPORT AREA)

CITY           SKY/WX    TMP DP  RH WIND       PRES   REMARKS
TEXARKANA        N/A     82  75  78 S7G17       N/A
CADDO LAKE       N/A     84  75  74 SW2G12      N/A  HX  92
LUFKIN           N/A     82  77  83 MISG        N/A  HX  91
N SABINE NF      N/A     82  75  78 MISG        N/A
$$

SUPPLEMENTAL OBSERVATIONS ARE A COLLECTION OF AUTOMATED INSTRUMENTS
THAT ARE MAINTAINED BY A VARIETY OF FEDERAL AND STATE AGENCIES.
CERTAIN ELEMENTS...SUCH AS HUMIDITY VALUES AND SUSTAINED WIND
SPEEDS...MAY BE APPROXIMATED.